Location: Penton Mewsey
(51.2167°N, 1.5167°W)
Time: 12:16:09
(UTC+00:00)

Cosmos 1703 - Pass Details

Date: 30 March 2020
Orbit: 523 x 541 km, 82.5° (Epoch: 02 June)

Event Time Altitude Azimuth Distance (km) Brightness Sun altitude
Rises 20:35:37 0° 351° (N) 2,697 7.5 -18.2°
Reaches altitude 10° 20:37:47 10° 354° (N) 1,803 6.5 -18.5°
Maximum altitude 20:41:44 70° 79° (ENE) 577 3.2 -19.0°
Enters shadow 20:42:35 51° 141° (SE) 684 3.4 -19.2°
